Showing default

COSMOS 1995, 19786

Orbit data source: Space-Track

COSMOS 1995, 19786 is a payload satellite owned by UNKS (CIS) in LEO that was launched on Fri, 10 Feb 1989 UTC via a TSIKLON-3 launch vehicle from the Plesetsk Missile And Space Complex (PKMTR). Payload-class satellites include a variety of spacecraft equipped with specific instruments for various scientific and technological missions. These include communications satellites like Starlink; space stations such as the ISS; scientific satellites like the Hubble; Earth observation satellites from companies like Planet Labs, Umbra, and HawkEye 360; GPS; miniature CubeSats for education and research; and military/defense satellites.

Loading next visibility...
Identifier
19786, 1989-009B
Orbit
LEO
Country
Flag of CISCIS
Related business
Manufacturer
NPO PM
Mission
Defense Communications
Bus & Motor
STRELA-3, Unknown motor
Mass
225 kg wet, 225 kg dry
Launch date (UTC)
1989-02-10 (37 years ago)
Launch vehicle
TSIKLON-3
Launch site
Plesetsk Missile And Space Complex (PKMTR)
Object type
Payload
Rocket body
Debris
Shape & HBR
Cyl, 0.8 m
Radar Cross Section
1.257 m², Large (>1 m²)

Expand to show TLE details & history
Last TLE update: 13 hours ago

TLE from 13 hours ago
0 COSMOS 1995
1 19786U 89009B   25258.84535676  .00000027  00000-0  92477-4 0  9995
2 19786  82.6252 202.7254 0004336  37.5541  15.7987 12.62224394685732
Epoch: 2025-09-15T20:17Z
TLE epoch observation values (Epoch: 2025-09-15T20:17:18.824Z)
Latitude
52.82566°
Longitude
-86.86903°
Altitude
1,419.065 km
Speed
7.158 km/s
True Right ascension
14h 10m 00s
True Declination
52° 40' 26"
Sunlit
Object was in daylight at epoch
Visualization orbit readout
Latitude
Unknown
Longitude
Unknown
Altitude
Unknown
Speed
Unknown
Apparent Right ascension
Unknown
Apparent Declination
Unknown
Sunlit
N/A
Visualization observer readout
Local Sidereal Time
01:58:58
Azimuth
Unknown
Elevation
Unknown
Doppler factor
Unknown
Orbital elements
Apogee altitude
1,414.473 km
Perigee altitude
1,407.718 km
Semi-major axis
7,789.233 km
Eccentricity
0.00043
Inclination
82.6252°
RAAN
202.7254°
Arg. of periapsis
37.5541°
True anomaly
15.81223°
Mean anomaly
15.7987°
Eccentric anomaly
15.80547°
Mean motion
3.15719 °/min
Orbital period
114.03 mins
BSTAR
0.000092477
Loading maneuver chart data...
Computing Atmospheric mass density...
Loading historical data...
Loading historical data...
Loading historical data...
Loading historical data...
Loading historical data...
Loading historical data...
Loading historical data...

Documentation

Showing up to 5 results
|